{"data":{"norad_id":51113,"intl_designator":"2022-005K","name":"STARLINK-3372","alt_names":[],"object_type":"PAYLOAD","status":"ACTIVE","operator":null,"country":"US","launch_date":"2022-01-19","launch_site_code":"AFETR","launch_vehicle":null,"mission":null,"orbit_class":"UNKNOWN","rcs_meters":null,"size_class":null,"mass_kg":null,"dimensions":null,"purposes":["comms"],"wikipedia_slug":null,"has_3d_model":false,"image_url":null,"decayed_at":null,"tle_current":{"epoch":"2026-05-24T20:44:17.186784Z","epoch_age_seconds":93574,"freshness":"FRESH","line1":"1 51113U 22005K   26144.86408781  .00000606  00000+0  56184-4 0  9998","line2":"2 51113  53.2150 307.1583 0001483  87.0374 273.0787 15.08835743240375","mean_motion":15.08835743,"eccentricity":0.0001483,"inclination_deg":53.215,"raan_deg":307.1583,"arg_perigee_deg":87.0374,"mean_anomaly_deg":273.0787,"bstar":5.6184e-5,"rev_number":24037,"period_min":95.437823943438,"perigee_km":538.7304773493,"apogee_km":540.78232453202,"semimajor_km":6917.8934009407,"source":"CELESTRAK","updated_at":"2026-05-25T13:38:16.907244Z"}}}